EW7961 Weather Reports


Display with metric or nautical units.
time (UTC)temp
F
wind
direction
speed
MPH
gust
MPH
rain 1hr
in
rain 24hr
in
rain mn
in
humidity
%
barometer
mb
20260831021519 83 282 1.0 2.0 0.00 0.00 0.00 55 1015.6
20260831020520 84 289 0.0 2.0 0.00 0.00 0.00 55 1015.6
20260831015519 84 289 1.0 2.0 0.00 0.00 0.00 54 1015.6
20260831014520 84 288 1.0 2.0 0.00 0.00 0.00 54 1015.5
20260831013607 85 285 1.0 2.0 0.00 0.00 0.00 53 1015.4
20260831012517 85 290 0.0 2.0 0.00 0.00 0.00 53 1015.3
20260831011520 86 281 0.0 2.0 0.00 0.00 0.00 52 1015.2
20260831010520 86 287 1.0 2.0 0.00 0.00 0.00 52 1015.1
20260831005520 87 291 0.0 2.0 0.00 0.00 0.00 51 1015.1
20260831004517 88 289 1.0 2.0 0.00 0.00 0.00 50 1015.0
20260831003558 88 295 0.0 2.0 0.00 0.00 0.00 48 1014.9
20260831002520 89 296 0.0 2.0 0.00 0.00 0.00 47 1014.9
20260831001518 89 298 1.0 4.0 0.00 0.00 0.00 47 1014.9
20260831000518 90 274 1.0 3.0 0.00 0.00 0.00 46 1014.9
20260830235518 90 296 0.0 3.0 0.00 0.00 0.00 45 1014.9
20260830234518 91 279 0.0 2.0 0.00 0.00 0.00 44 1015.0
20260830233518 91 283 0.0 2.0 0.00 0.00 0.00 43 1015.1
20260830232519 92 281 1.0 3.0 0.00 0.00 0.00 42 1015.0
20260830231559 93 279 1.0 3.0 0.00 0.00 0.00 42 1015.0
20260830230519 93 280 1.0 2.0 0.00 0.00 0.00 40 1015.0
20260830225559 93 282 1.0 4.0 0.00 0.00 0.00 39 1014.9
20260830224519 94 253 1.0 2.0 0.00 0.00 0.00 39 1014.9
20260830223519 95 294 1.0 2.0 0.00 0.00 0.00 38 1014.9
20260830222639 95 281 0.0 2.0 0.00 0.00 0.00 38 1014.9
20260830221600 96 281 1.0 5.0 0.00 0.00 0.00 37 1014.9
20260830220519 97 281 1.0 3.0 0.00 0.00 0.00 37 1014.9
20260830215519 97 274 1.0 5.0 0.00 0.00 0.00 37 1014.8
20260830214520 99 266 1.0 3.0 0.00 0.00 0.00 35 1014.8
20260830213557 98 302 1.0 2.0 0.00 0.00 0.00 35 1014.8
20260830212518 98 277 1.0 3.0 0.00 0.00 0.00 34 1014.9
20260830211522 98 287 1.0 4.0 0.00 0.00 0.00 36 1015.0
20260830210600 97 289 1.0 5.0 0.00 0.00 0.00 36 1015.1
20260830205557 97 287 2.0 5.0 0.00 0.00 0.00 35 1015.1
20260830204529 97 280 1.0 3.0 0.00 0.00 0.00 34 1015.1
20260830203530 97 285 1.0 2.0 0.00 0.00 0.00 33 1015.1
20260830202530 97 278 1.0 3.0 0.00 0.00 0.00 34 1015.3
20260830201530 96 295 2.0 4.0 0.00 0.00 0.00 34 1015.3
20260830200530 96 307 1.0 3.0 0.00 0.00 0.00 36 1015.5
20260830195530 95 243 1.0 3.0 0.00 0.00 0.00 35 1015.6
20260830194543 95 285 1.0 3.0 0.00 0.00 0.00 36 1015.6
20260830193530 95 288 1.0 2.0 0.00 0.00 0.00 36 1015.8
20260830192610 95 289 1.0 4.0 0.00 0.00 0.00 37 1015.9
20260830191530 94 301 1.0 3.0 0.00 0.00 0.00 36 1016.1
20260830190530 94 266 1.0 3.0 0.00 0.00 0.00 37 1016.2
20260830185530 93 262 1.0 3.0 0.00 0.00 0.00 38 1016.2
20260830184531 93 286 2.0 4.0 0.00 0.00 0.00 39 1016.2
20260830183531 92 279 1.0 2.0 0.00 0.00 0.00 37 1016.3
20260830182531 92 291 2.0 4.0 0.00 0.00 0.00 39 1016.4
20260830181531 92 42 1.0 3.0 0.00 0.00 0.00 39 1016.5
20260830180516 92 270 1.0 4.0 0.00 0.00 0.00 40 1016.6
20260830175516 91 285 1.0 4.0 0.00 0.00 0.00 41 1016.7
20260830174516 91 278 0.0 2.0 0.00 0.00 0.00 41 1016.8
20260830173532 90 292 1.0 3.0 0.00 0.00 0.00 42 1017.0
20260830172532 90 258 1.0 3.0 0.00 0.00 0.00 42 1017.0
20260830171532 89 301 1.0 3.0 0.00 0.00 0.00 43 1017.3
20260830170532 89 297 2.0 4.0 0.00 0.00 0.00 42 1017.5
20260830165532 88 280 2.0 4.0 0.00 0.00 0.00 44 1017.6
20260830164517 88 288 2.0 3.0 0.00 0.00 0.00 46 1017.7
20260830163557 87 293 2.0 3.0 0.00 0.00 0.00 46 1017.7
20260830162517 86 285 1.0 3.0 0.00 0.00 0.00 48 1017.7
20260830161557 86 292 1.0 3.0 0.00 0.00 0.00 50 1017.7
20260830160518 85 273 2.0 3.0 0.00 0.00 0.00 51 1017.6
20260830155517 84 280 1.0 3.0 0.00 0.00 0.00 54 1017.6
20260830154533 83 278 1.0 5.0 0.00 0.00 0.00 56 1017.4
20260830153558 0 280 1.0 3.0 0.00 0.00 0.00
20260830152518 82 280 2.0 3.0 0.00 0.00 0.00 56 1017.2
20260830151518 81 275 1.0 3.0 0.00 0.00 0.00 58 1017.4
20260830150518 80 282 2.0 4.0 0.00 0.00 0.00 59 1017.4
20260830145518 80 273 2.0 3.0 0.00 0.00 0.00 61 1017.5
20260830144518 79 284 2.0 3.0 0.00 0.00 0.00 62 1017.4
20260830143519 79 274 2.0 3.0 0.00 0.00 0.00 63 1017.4
20260830142519 78 271 2.0 4.0 0.00 0.00 0.00 64 1017.4
20260830141559 77 280 1.0 3.0 0.00 0.00 0.00 67 1017.4
20260830140534 77 274 2.0 3.0 0.00 0.00 0.00 70 1017.4
20260830135534 76 277 2.0 3.0 0.00 0.00 0.00 71 1017.4
20260830134559 75 271 2.0 3.0 0.00 0.00 0.00 73 1017.5
20260830133520 75 270 1.0 2.0 0.00 0.00 0.00 75 1017.6
20260830132600 75 270 2.0 3.0 0.00 0.00 0.00 75 1017.7
20260830131519 74 277 1.0 2.0 0.00 0.00 0.00 76 1017.8
20260830130520 74 258 2.0 3.0 0.00 0.00 0.00 77 1017.8
20260830125520 74 262 2.0 3.0 0.00 0.00 0.00 76 1017.8
20260830124520 74 279 2.0 2.0 0.00 0.00 0.00 76 1017.8
20260830123600 73 275 1.0 2.0 0.00 0.00 0.00 78 1017.7
20260830122520 72 269 2.0 2.0 0.00 0.00 0.00 80 1017.7
20260830121535 71 263 2.0 3.0 0.00 0.00 0.00 82 1017.7
20260830120521 70 278 2.0 2.0 0.00 0.00 0.00 83 1017.7
20260830115520 70 282 2.0 2.0 0.00 0.00 0.00 83 1017.6
20260830114521 70 295 1.0 2.0 0.00 0.00 0.00 84 1017.6
20260830113521 70 288 1.0 2.0 0.00 0.00 0.00 84 1017.7
20260830112524 70 269 2.0 2.0 0.00 0.00 0.00 83 1017.6
20260830111521 70 278 1.0 2.0 0.00 0.00 0.00 83 1017.5
20260830110522 70 319 1.0 2.0 0.00 0.00 0.00 82 1017.3
20260830105521 71 296 1.0 2.0 0.00 0.00 0.00 82 1017.3
20260830104522 71 267 1.0 2.0 0.00 0.00 0.00 82 1017.3
20260830103521 71 298 1.0 2.0 0.00 0.00 0.00 82 1017.3
20260830102522 71 286 1.0 2.0 0.00 0.00 0.00 81 1017.3
20260830101522 71 274 1.0 2.0 0.00 0.00 0.00 81 1017.3
20260830100522 71 310 1.0 2.0 0.00 0.00 0.00 81 1017.3
20260830095522 71 288 1.0 2.0 0.00 0.00 0.00 80 1017.2
20260830094522 71 297 1.0 2.0 0.00 0.00 0.00 79 1017.0
20260830093522 72 296 1.0 2.0 0.00 0.00 0.00 78 1016.9
20260830092522 72 298 1.0 2.0 0.00 0.00 0.00 78 1017.0
20260830091522 72 277 2.0 3.0 0.00 0.00 0.00 78 1017.0
20260830090523 72 268 1.0 2.0 0.00 0.00 0.00 77 1017.1
20260830085538 72 258 1.0 2.0 0.00 0.00 0.00 78 1017.1
20260830083523 73 297 1.0 2.0 0.00 0.00 0.00 77 1017.4
20260830082523 73 290 2.0 3.0 0.00 0.00 0.00 77 1017.5
20260830081523 73 266 1.0 2.0 0.00 0.00 0.00 77 1017.5
20260830080608 73 268 1.0 2.0 0.00 0.00 0.00 76 1017.5
20260830075604 73 270 1.0 2.0 0.00 0.00 0.00 76 1017.5
20260830074604 73 295 1.0 2.0 0.00 0.00 0.00 76 1017.6
20260830073518 74 292 1.0 2.0 0.00 0.00 0.00 76 1017.7
20260830072521 74 281 1.0 4.0 0.00 0.00 0.00 75 1017.7
20260830071518 74 287 1.0 2.0 0.00 0.00 0.00 74 1017.7
20260830070559 74 280 1.0 3.0 0.00 0.00 0.00 74 1017.6
20260830065518 75 288 1.0 3.0 0.00 0.00 0.00 73 1017.5
20260830064519 75 292 1.0 3.0 0.00 0.00 0.00 73 1017.6
20260830063519 75 289 1.0 3.0 0.00 0.00 0.00 73 1017.6
20260830062519 75 288 1.0 2.0 0.00 0.00 0.00 72 1017.6
20260830061519 75 285 1.0 2.0 0.00 0.00 0.00 72 1017.7
20260830060519 76 284 1.0 2.0 0.00 0.00 0.00 72 1017.6
20260830055516 76 284 1.0 2.0 0.00 0.00 0.00 72 1017.5
20260830054520 76 282 1.0 2.0 0.00 0.00 0.00 72 1017.5
20260830053520 76 287 1.0 2.0 0.00 0.00 0.00 72 1017.7
20260830052519 76 272 1.0 3.0 0.00 0.00 0.00 72 1017.7
20260830051520 76 276 1.0 2.0 0.00 0.00 0.00 71 1017.7
20260830050517 76 283 1.0 2.0 0.00 0.00 0.00 71 1017.8
20260830045517 77 292 1.0 2.0 0.00 0.00 0.00 70 1017.7
20260830044520 76 290 1.0 2.0 0.00 0.00 0.00 70 1017.7
20260830043520 76 291 1.0 2.0 0.00 0.00 0.00 70 1017.7
20260830042518 76 288 1.0 2.0 0.00 0.00 0.00 70 1017.7
20260830041518 76 286 1.0 2.0 0.00 0.00 0.00 70 1017.7
20260830040518 77 284 1.0 2.0 0.00 0.00 0.00 69 1017.6
20260830035521 77 287 1.0 2.0 0.00 0.00 0.00 69 1017.7
20260830034518 77 276 1.0 2.0 0.00 0.00 0.00 68 1017.6
20260830033518 77 283 1.0 2.0 0.00 0.00 0.00 67 1017.6
20260830032558 78 283 1.0 2.0 0.00 0.00 0.00 66 1017.7
20260830031518 78 291 1.0 2.0 0.00 0.00 0.00 66 1017.6
20260830030518 78 276 1.0 3.0 0.00 0.00 0.00 65 1017.5
20260830025524 78 286 1.0 2.0 0.00 0.00 0.00 64 1017.6
20260830024518 79 283 1.0 2.0 0.00 0.00 0.00 64 1017.6
20260830023518 79 290 1.0 2.0 0.00 0.00 0.00 64 1017.5
20260830022519 79 288 1.0 2.0 0.00 0.00 0.00 63 1017.5